THORAD AGENA D DEB, 5149

Orbit data source: Space-Track

THORAD AGENA D DEB, 5149 is space debris in SSO originally from a launch on Wed, 08 Apr 1970 UTC launched from the Air Force Western Test Range (AFWTR). Debris objects in space refer to the collection of defunct objects orbiting the Earth. Examples of debris include non-operational satellites, rocket bodies, and fragments generated from explosions, collisions, or faulty payload assembly.

Loading next visibility...
Identifier
5149, 1970-025JS
Orbit
SSO
Country
Flag of USUS
Related business
Manufacturer
Unknown
Mission
Spacecraft
Bus & Motor
Unknown
Mass
Unknown
Launch date (UTC)
1970-04-08 (56 years ago)
Launch vehicle
Unknown
Launch site
Air Force Western Test Range (AFWTR)
Object type
Payload
Rocket body
Debris
Shape & HBR
Unknown shape, 0.1 m
Radar Cross Section
Small (<0.1 m²)

Expand to show TLE details & history
Last TLE update: 20 hours ago

TLE from 20 hours ago
0 THORAD AGENA D DEB
1  5149U 70025JS  25308.50806890  .00002546  00000-0  10360-2 0  9996
2  5149  99.6531 329.5630 0051643  52.1414 308.4419 14.27817982829544
Epoch: 2025-11-04T12:11Z
TLE epoch observation values (Epoch: 2025-11-04T12:11:37.152Z)
Latitude
-0.00012°
Longitude
102.66413°
Altitude
778.996 km
Speed
7.476 km/s
True Right ascension
21h 58m 15s
True Declination
0° 00' 00"
Sunlit
Object was in daylight at epoch
Visualization orbit readout
Latitude
Unknown
Longitude
Unknown
Altitude
Unknown
Speed
Unknown
Apparent Right ascension
Unknown
Apparent Declination
Unknown
Sunlit
N/A
Visualization observer readout
Local Sidereal Time
04:10:22
Azimuth
Unknown
Elevation
Unknown
Doppler factor
Unknown
Orbital elements
Apogee altitude
833.28 km
Perigee altitude
759.179 km
Semi-major axis
7,174.366 km
Eccentricity
0.00516
Inclination
99.6531°
RAAN
329.563°
Arg. of periapsis
52.1414°
True anomaly
307.97653°
Mean anomaly
308.4419°
Eccentric anomaly
308.2094°
Mean motion
3.57164 °/min
Orbital period
100.79 mins
BSTAR
0.001036
Loading maneuver chart data...
Computing Atmospheric mass density...

Documentation

Showing up to 5 results
|